Location: *
(40.4270°N, 9.4940°E)
Time: 05:06:35
(UTC+02:00)

Daily predictions for brighter satellites

Satellite Brightness Start Highest point End
(mag) Time Altitude Azimuth Time Altitude Azimuth Time Altitude Azimuth
Milstar 3 4.1 04:40:31 27° SSE 04:40:31 27° SSE 04:44:37 10° ESE
CZ-4C R/B 2.8 04:47:37 85° SE 04:47:37 85° SE 04:55:25 10° SSE
CZ-3 R/B 4.3 04:39:38 45° WSW 04:47:39 53° SSW 04:59:32 10° SE
ADEOS II 3.0 04:52:27 10° NNE 04:55:51 41° NNE 04:55:51 41° NNE
Cosmos 1943 Rocket 3.6 05:06:48 26° N 05:06:48 26° N 05:09:23 10° NNE
USA 215 4.2 05:01:21 10° NE 05:06:59 33° NNW 05:06:59 33° NNW
Cosmos 2154 Rocket 4.0 05:05:12 10° N 05:11:34 78° E 05:17:51 10° S
CZ-4B R/B 4.1 05:10:20 10° NNE 05:15:37 47° E 05:20:57 10° S
Cosmos-2242 4.3 05:15:32 10° N 05:19:35 40° ENE 05:23:40 10° SSE
Okean O Rocket 2.0 05:16:35 10° NNE 05:20:57 61° E 05:21:12 59° ESE
NOSS 3-1 (C) 3.3 05:22:01 58° SSW 05:23:12 81° ESE 05:29:35 10° NE
Cosmos 1758 Rocket 4.4 05:26:40 42° N 05:26:40 42° N 05:29:40 10° N
USA 229 DEB 3.8 05:25:15 53° WNW 05:25:39 54° NW 05:32:27 10° NNE
USA 229 3.7 05:25:19 53° WNW 05:25:44 54° NW 05:32:32 10° NNE
OAO 2 Rocket 4.1 05:26:57 39° S 05:26:57 39° S 05:31:02 10° ESE
NOSS 3-1 (A) 3.6 05:27:04 32° S 05:29:46 64° ESE 05:36:03 10° NE
ERBS 4.0 05:30:56 33° NE 05:30:56 33° NE 05:33:47 10° ESE
USA 267 3.3 05:31:24 10° SSE 05:37:45 53° SW 05:39:11 45° W
Cosmos 158 Rocket 4.3 05:36:46 10° NNW 05:42:10 70° ENE 05:47:31 10° SSE
Lacrosse 5 4.0 05:42:31 13° NNW 05:43:14 13° N 05:45:34 10° NNE
Cosmos 962 Rocket 4.3 05:40:36 10° N 05:46:45 78° W 05:52:50 10° S
CZ-2C R/B 4.4 05:43:17 10° SSE 05:47:56 57° ENE 05:52:33 10° N
Meteor PRIRODA 3.7 05:46:26 10° NNE 05:50:12 77° E 05:52:29 23° S
Cosmos 2369 Rocket 4.2 05:54:20 12° NNW 05:54:20 12° NNW 05:55:32 10° NNW
RUBIN 8/PSLV 4.4 05:50:23 10° N 05:54:38 64° WNW 05:55:51 43° SW
Cosmos 2227 Rocket 3.7 05:49:51 10° N 05:55:04 35° ENE 06:00:13 10° SE
Meteor 1-24 Rocket 4.2 05:50:35 10° S 05:56:33 68° E 06:02:25 10° NNE
Cosmos 1809 Rocket 4.3 05:51:23 10° N 05:57:31 78° W 06:03:38 10° S
Cosmos 2341 Rocket 4.0 05:58:14 10° NNW 06:04:31 58° W 06:10:43 10° S
ORS 1 (USA 231) 4.3 06:05:05 79° SE 06:05:05 79° SE 06:07:55 10° E
Cosmos 2181 Rocket 3.9 05:59:14 10° SSW 06:05:27 67° W 06:11:36 10° N
Tiangong 2 2.6 06:06:10 25° S 06:06:10 25° S 06:08:19 10° SSE
CZ-4B R/B 4.0 06:01:06 10° N 06:05:36 86° WNW 06:10:05 10° SSW
USA 81 3.9 06:03:32 10° S 06:08:48 81° W 06:14:07 10° N
Cosmos 1356 Rocket 3.7 06:07:51 29° SW 06:09:39 47° WNW 06:13:50 10° N
SJ 16-02 1.3 06:11:18 12° SSW 06:15:18 63° WNW 06:19:41 10° NNE
Cosmos 1959 Rocket 4.5 06:11:45 10° N 06:18:05 86° W 06:24:18 10° S
Meteor 2-21 Rocket 4.4 06:14:32 10° NNW 06:20:33 67° W 06:26:34 10° S
Cosmos 1674 4.0 06:19:21 10° SSE 06:22:53 42° E 06:26:26 10° NNE
Cosmos 2219 3.3 06:18:02 10° NNW 06:23:31 51° WSW 06:28:55 10° S
Cosmos 1269 Rocket 4.0 06:20:48 10° NNW 06:26:04 69° WSW 06:31:20 10° S
Cosmos 372 Rocket 4.2 06:23:53 10° SW 06:28:55 48° WNW 06:34:00 10° N
Cosmos 2297 Rocket 2.8 06:27:13 10° NNW 06:32:48 58° ENE 06:38:21 10° SE
SKYMED 2 3.8 06:28:45 10° SSE 06:33:04 76° ENE 06:37:25 10° N
CZ-4C R/B 4.1 06:32:57 17° W 06:35:23 20° WSW 06:40:46 10° SSW
Cosmos 1726 4.5 06:33:13 10° NNE 06:36:24 27° ENE 06:39:32 10° SE
ADEOS II 3.7 06:34:06 10° NNW 06:36:46 14° WNW 06:36:47 14° WNW
USA 116 3.9 06:33:31 10° S 06:36:57 45° W 06:40:50 10° NNW
Meteor 1-31 Rocket 3.4 06:33:41 10° N 06:37:04 31° WNW 06:40:26 10° SW
In-Cosmos 22 4.2 06:33:13 10° SSW 06:38:45 62° WNW 06:44:27 10° N
Cosmos 2082 4.1 06:35:49 10° NNW 06:41:29 67° ENE 06:47:03 10° SSE
Cosmos 1697 Rocket 4.1 06:36:43 10° S 06:41:59 41° ESE 06:47:16 10° NE
Meteor 2-5 Rocket 4.5 06:37:15 10° SW 06:42:27 32° WNW 06:47:38 10° N
PAYLOAD A 4.3 06:38:12 10° NNE 06:42:55 66° ESE 06:47:43 10° S
SWAS 4.5 06:38:44 10° NNW 06:43:01 60° WSW 06:47:15 10° S
IDEFIX/ARIANE 42P 3.0 06:41:16 10° NNE 06:46:29 66° ESE 06:51:39 10° S
Cosmos 1125 Rocket 4.3 06:42:49 10° SW 06:47:27 31° WNW 06:52:09 10° N
Cosmos 1356 4.3 06:45:22 10° SW 06:48:26 29° WNW 06:51:31 10° NNW
Meteor 2-1 Rocket 4.3 06:44:24 10° NNW 06:50:15 62° W 06:55:56 10° S
Cosmos 2366 rocket 4.1 06:47:08 10° NNW 06:53:02 50° W 06:58:58 10° SSW
Cosmos 494 Rocket 4.0 06:49:55 10° NNW 06:55:07 88° ENE 07:00:20 10° SSE
KORONAS-FOTON 3.9 06:51:48 10° S 06:55:33 80° E 06:59:21 10° N
NOAA 6 4.1 06:50:31 10° N 06:55:37 60° WNW 07:00:40 10° SSW
CZ-4B R/B 4.2 06:51:35 10° NNW 06:55:52 24° WNW 07:00:11 10° WSW
Cosmos 1980 Rocket 4.3 06:51:13 10° SSE 06:56:03 31° ESE 07:00:55 10° NE
Okean O Rocket 3.4 06:54:44 10° NW 06:56:48 13° WNW 06:58:39 11° W
DELTA 2 R/B(2) 4.3 06:56:56 14° W 06:58:48 55° S 07:02:33 10° ESE
Cosmos 1908 3.2 06:56:25 10° NNW 07:00:13 62° W 07:03:59 10° S
Cosmos 2369 3.7 06:57:15 10° SSW 07:02:52 73° WNW 07:08:31 10° NNE
EO 1 Del DPAF 4.0 07:01:32 10° SSW 07:04:56 31° W 07:08:23 10° NW
ERBS 3.8 07:04:21 10° WNW 07:07:04 21° SW 07:09:46 10° S
CZ-2C R/B 2.7 07:02:10 10° NNE 07:07:10 81° ESE 07:12:16 10° S
ATLAS 2AS CENTAUR R/B 3.7 07:01:08 10° SSW 07:08:38 63° ESE 07:16:38 10° NE
Cosmos 1818 4.4 07:06:26 10° SSW 07:11:43 57° ESE 07:17:02 10° NE
Okean-O 3.3 07:10:01 10° N 07:14:01 33° WNW 07:17:58 10° SW
NOSS 2-3 (E) 3.9 07:11:04 10° SW 07:15:42 70° NW 07:21:07 10° NNE
